Location: Peebles
(55.6412°N, 3.1714°W)
Time: 23:01:24
(UTC+01:00)

CENTAUR R/B - Pass Details

Date: 22 January 2022
Orbit: 716 x 1471 km, 63.4° (Epoch: 08 May)

Event Time Altitude Azimuth Distance (km) Brightness Sun altitude
Rises 20:15:35 0° 278° (W) 3,713 6.7 -31.6°
Reaches altitude 10° 20:18:07 10° 285° (WNW) 2,869 5.8 -32.0°
Maximum altitude 20:24:47 48° 359° (N) 1,537 3.5 -32.9°
Enters shadow 20:25:30 46° 15° (NNE) 1,578 3.4 -33.0°
